Regional Weather Roundup
Issued by NWS Grand Forks, ND

Home | Current Version | Previous Version | Graphics & Text | Print | Product List | Glossary On
Versions: 1 2 3 4 5 6 7 8 9 10 11 12 13 14 15 16 17 18 19 20 21 22 23 24 25 26 27 28 29 30 31 32 33 34 35 36 37 38 39 40 41 42 43 44 45 46 47 48 49 50
000
ASUS43 KFGF 242031
RWRFGF
PRAIRIE TO PINES  WEATHER ROUNDUP
NATIONAL WEATHER SERVICE EASTERN NORTH DAKOTA/GRAND FORKS ND
300 PM CDT FRI OCT 24 2014

 **SATELLITE DATA USED TO AUGMENT SKY COVER AT AUTOMATED STATIONS**
 *****  WEATHER ACROSS EASTERN NORTH DAKOTA  *****

CITY           SKY/WX    TMP DP  RH WIND       PRES   REMARKS
GRAND FORKS    MOSUNNY   73  41  31 W17G25    29.72F
GRAND FRKS AFB SUNNY     72  40  30 W22G28    29.73F
GRAND FRKS NWS   N/A     72 N/A N/A W23         N/A
DEVILS LAKE    SUNNY     66  36  32 W25       29.77R
FARGO          SUNNY     77  42  28 W18       29.76F
WAHPETON ARPT  CLEAR     72  36  26 W10       29.80F
$$

 ***** WEATHER ACROSS CENTRAL AND WESTERN NORTH DAKOTA  *****

CITY           SKY/WX    TMP DP  RH WIND       PRES   REMARKS
BISMARCK       MOSUNNY   73  36  25 W18G24    29.89F
MINOT          SUNNY     65  27  23 W30G38    29.84R
JAMESTOWN      SUNNY     71  40  32 W15       29.82S
MINOT AFB      SUNNY     65  31  28 W28G36    29.82R
GARRISON         N/A     66  30  26 NW25G36   29.88R
WILLISTON      MOSUNNY   62  30  29 W24G32    29.92S
DICKINSON      PTSUNNY   61  35  37 W17G26    29.95S
HETTINGER      CLOUDY    64  33  31 W15       30.00R
$$

 *****  OTHER AIRPORT OBSERVATIONS IN OUR AREA  *****

CITY           SKY/WX    TMP DP  RH WIND       PRES   REMARKS
WALHALLA         N/A     70  32  24 W25G38    29.68R
GRAFTON AIRPOR FAIR      68  39  34 W23G31    29.70S
VALLEY CITY AR FAIR      73  41  31 W17       29.80F
CANDO          FAIR      66  30  26 W32G43    29.77R
CAVALIER APRT  FAIR      72  37  28 W20G37    29.68S
GWINNER        CLEAR     79  43  27 W9        29.82F
SHEYENNE NWR     N/A     76  41  28 W14       29.95
ROLLA          FAIR      63  32  31 W24G38    29.77R
 ***** THE ABOVE OBSERVATIONS ARE NON NWS ARE NOT QUALITY
       CONTROLLED AND MAY MIS-REPORT RAIN FOR SNOW...
$$

  *****  WEATHER ACROSS NORTHERN MINNESOTA  *****

CITY           SKY/WX    TMP DP  RH WIND       PRES   REMARKS
FLAG ISLAND    CLOUDY    64  43  45 W18G25    29.61F
WARROAD        CLOUDY    70  48  46 SW17      29.65F
ROSEAU         CLOUDY    72  45  37 W13G25    29.65F
HALLOCK        SUNNY     73  36  25 W24G33    29.67R
THF RVR FALLS  SUNNY     73  43  33 W21G29    29.71F
BAUDETTE       CLOUDY    69  43  38 SW12G23   29.66F
WASKISH        PTSUNNY   68  43  40 SW15G21   29.70F
CROOKSTON      SUNNY     73  41  31 W25G32    29.73S
STEPHEN NDAWN    N/A     72  43  35 W20         N/A
GREENBUSH NDAW   N/A     72  41  33 W23         N/A
$$
  *****  WEATHER ACROSS CENTRAL AND WEST MINNESOTA  *****

CITY           SKY/WX    TMP DP  RH WIND       PRES   REMARKS
FOSSTON        SUNNY     72  41  33 SW14G20   29.75F
BEMIDJI        SUNNY     72  40  32 W15G21    29.74F
PARK RAPIDS    MOSUNNY   71  36  27 W12       29.78F
ELBOW LAKE     FAIR      72  41  32 W13G18    29.82S
WADENA         MOSUNNY   70  41  35 W12       29.79F
DETROIT LAKES  SUNNY     70  39  32 W7        29.80F
MOORHEAD       SUNNY     73  34  23 SW8       29.78F
FERGUS FALLS   FAIR      72  36  26 W9        29.81F
MORRIS MN      SUNNY     75  43  31 NW13      29.82S
STAPLES        MOSUNNY   72  37  28 W12G17    29.79F
$$
  *****  WEATHER ELSEWHERE ACROSS MINNESOTA  *****

CITY           SKY/WX    TMP DP  RH WIND       PRES   REMARKS
DULUTH         MOSUNNY   69  51  52 W13       29.76F
INTRNTL FALLS  CLOUDY    69  40  34 W12G18    29.67F
ELY            MOSUNNY   68  41  37 SW12      29.72S
CLOQUET        SUNNY     66  50  55 SW9       29.77F
WHEATON        SUNNY     73  39  29 W8        29.83F
BRAINERD       MOSUNNY   68  44  42 SW7       29.80F
HIBBING        MOSUNNY   71  41  33 SW10G20   29.74F
ALEXANDRIA     MOSUNNY   69  42  37 W9        29.83F
SAINT CLOUD    MOSUNNY   69  50  50 SW8       29.82S
MINNEAPOLIS    PTSUNNY   64  54  69 VRB3      29.82F
$$

  *****  WEATHER ACROSS SOUTH DAKOTA  *****

CITY           SKY/WX    TMP DP  RH WIND       PRES   REMARKS
SIOUX FALLS    PTSUNNY   75  39  27 NW8       29.88S
BROOKINGS      NOT AVBL
WATERTOWN      MOSUNNY   73  38  27 NW7       29.88S
HURON          SUNNY     79  33  19 W8        29.87F
SISSETON         N/A     77  38  24 NW14      29.82F
ABERDEEN       SUNNY     80  39  23 NW16      29.86F
MITCHELL       MOSUNNY   75  38  26 VRB3      29.89F
PIERRE         SUNNY     76  35  22 W7        29.90F
MOBRIDGE       SUNNY     76  40  27 NW16      29.89S
RAPID CITY     SUNNY     70  38  31 N17G23    30.00F
$$

  *****  SOME WEATHER IN NEARBY STATES *****

CITY           SKY/WX    TMP DP  RH WIND       PRES   REMARKS
GLASGOW MT     MOSUNNY   58  27  30 NW21G31   29.97S
GREAT FALLS MT PTSUNNY   57  33  40 SW17G23   30.02F
CHEYENNE WY    MOSUNNY   76  23  14 W15G24    30.18F
SCOTTSBLUFF NE SUNNY     81  32  17 W21G29    30.03F
OMAHA NE       CLOUDY    73  58  59 VRB6      29.90F
DES MOINES IA  CLOUDY    66  61  84 SW12      29.89F
DAVENPORT IA   MOSUNNY   69  50  50 S18G24    29.96F
CHICAGO IL     PTSUNNY   66  47  50 W8        29.96F
EAU CLAIRE WI  CLOUDY    60  50  69 S9        29.85F
LA CROSSE WI   CLOUDY    65  52  62 S14       29.86F
$$

  *****  SOME NATIONAL WEATHER *****

CITY           SKY/WX    TMP DP  RH WIND       PRES   REMARKS
LA GUARDIA NY  PTSUNNY   62  44  51 N9        29.76S
RALEIGH NC     PTSUNNY   70  46  42 SW7       29.96F
ATLANTA GA     MOSUNNY   73  42  32 VRB5      30.01F
NEW ORLEANS LA MOSUNNY   75  47  36 N7        30.05F
OKLAHOMA CITY  MOSUNNY   84  62  47 S13       30.04F
ALBUQUERQUE NM SUNNY     74  32  21 CALM      30.28F
SALT LAKE CITY MOSUNNY   77  29  17 S17       30.12F
LOS ANGELES CA SUNNY     76  59  55 W9        29.96F
BOISE ID       SUNNY     62  49  62 CALM      30.05F
SEATTLE WA     CLOUDY    57  46  66 NE7       30.00F
$$

*** WEATHER ACROSS MANITOBA...SASKATCHEWAN AND ONTARIO ***
                ***ONTARIO***

CITY           SKY/WX    TMP DP  RH WIND       PRES   REMARKS
GERALDTON      CLOUDY    48  46  93 SW8       29.71F FOG
THUNDER BAY    PTSUNNY   59  50  72 NE8       29.71F
SIOUX LOOKOUT  MOSUNNY   63  41  45 SW9G17    29.60F
TORONTO        MOSUNNY   61  39  44 W3        29.93F
BIG TROUT LK   SUNNY     54  45  71 SE6       29.46F
PICKLE LAKE    MOSUNNY   61  45  55 S12       29.54F
DRYDEN         PTSUNNY   61  41  48 SW13G20   29.61F
KENORA         PTSUNNY   57  43  58 S16       29.61F
$$
                *** MANITOBA***

CITY           SKY/WX    TMP DP  RH WIND       PRES   REMARKS
BRANDON        PTSUNNY   63  37  39 W32       29.70R
DAUPHIN        MOSUNNY   61  37  41 W22G33    29.62R
ISLAND LAKE    LGT RAIN  52  48  87 SW6       29.40F
PILOT MOUND      N/A     64  30  27 W18G35      N/A
THE PAS        CLOUDY    46  39  76 W15       29.50R
THOMPSON       CLOUDY   N/A N/A N/A W5          N/A  FOG
WINNIPEG       MOSUNNY   68  41  37 SW15G26   29.60F
LYNN LAKE      PTSUNNY   43  41  93 SW10      29.34S
CHURCHILL      LGT RAIN  39  37  93 E13       29.43F FOG
GILLAM         CLOUDY    43  41  93 VRB2      29.40F
$$
                ***SASKATCHEWAN***

CITY           SKY/WX    TMP DP  RH WIND       PRES   REMARKS
ESTEVAN        MOSUNNY   61  34  36 W21G31    29.85R
KINDERSLEY     MOSUNNY   52  28  40 NW17G23   29.88R
LLOYDMINSTER   PTSUNNY   48  28  46 W22G33    29.79R
PRINCE ALBERT  PTSUNNY   46  34  61 W22G29    29.69
REGINA         MOSUNNY   55  32  41 W23G31    29.84R
YORKTON        SUNNY     57  32  38 W30G39    29.68R
N. BATTLEFORD  SUNNY     52  28  40 W23G30    29.79F
LA RONGE       CLOUDY    41  32  70 W21G30    29.57
SASKATOON      MOSUNNY   54  30  40 NW22G32   29.79R
SWIFT CURRENT  SUNNY     54  30  40 NW21      29.88S
$$
NOTE: THESE ARE AUTOMATED STATIONS WITH LIMITED QUALITY CONTROL
      "FAIR" INDICATES FEW OR NO CLOUDS BELOW 12,000 FEET WITH NO
      SIGNIFICANT WEATHER AND/OR OBSTRUCTIONS TO VISIBILITY.
      SKY/WX - SKY CONDITION AND SIGNIFICANT WEATHER.
      TMP - AIR TEMPERATURE.    DP   - DEWPOINT TEMPERATURE.
      RH  - RELATIVE HUMIDITY.  PRES - PRESSURE.
      HX  - HEAT INDEX.         WCI  - WIND CHILL INDEX.
$



USA.gov is the U.S. government's official web portal to all federal, state and local government web resources and services.